[[{"header":{"parameterUnit":"m.s-1","parameterCategory":1,"la1":30.2991,"la2":30.254,"lo1":-89.0895,"lo2":-89.0444,"dy":0.0017,"dx":0.0017,"nx":28,"ny":28,"refTime":"2023-09-16T21:00:00:Z","depth":0,"parameterNumber":2,"parameterNumberName":"U-component_of_WINDS"},"data":[0,0,0,0,0,0,0,0,0,0,0,0,0,0,0,0,0,0,0,0,0,0,0,0,0,0,0,0,0,0,0,0,0,0,0,0,0,0,0,0,0,0,0,0,0,0,0,0,0,0,0,0,0,0,0,0,0,0,-0.8462,-0.8461,0,-0.8396,-0.8395,-0.8395,-0.829,-0.8288,-0.8286,-0.8284,-0.8219,-0.8219,-0.8219,0,0,0,0,0,0,0,0,0,0,0,0,0,-0.8498,-0.8498,-0.8462,-0.8461,-0.846,-0.8396,-0.8395,-0.8394,-0.829,-0.8288,-0.8286,-0.8284,-0.8219,-0.8219,-0.8219,0,0,0,0,0,0,0,0,0,0,0,0,0,-0.8463,-0.8498,-0.8462,-0.84,-0.8394,-0.8396,-0.8395,-0.8394,-0.8291,-0.8288,-0.8285,-0.8282,-0.8219,-0.8219,-0.8219,-0.8276,0,0,-0.8219,-0.8219,0,0,0,0,0,0,0,0,-0.8465,-0.8461,-0.841,-0.8405,-0.8398,-0.8348,-0.8384,-0.8355,-0.8292,-0.833,-0.8284,-0.8281,-0.8264,-0.826,-0.8254,-0.8273,-0.827,-0.8219,-0.8219,-0.8219,-0.8219,0,0,0,0,0,0,0,-0.8467,-0.8464,-0.8436,-0.841,-0.8402,-0.8377,-0.8368,-0.8378,-0.8314,-0.8327,-0.8319,-0.8312,-0.826,-0.8255,-0.8252,-0.8269,-0.8219,-0.8219,-0.8219,-0.8219,-0.8333,-0.8335,0,0,0,0,0,0,-0.8479,-0.8466,-0.8438,-0.8434,-0.8425,-0.8378,-0.8369,-0.8367,-0.8314,-0.8303,-0.8315,-0.8308,-0.8256,-0.8252,-0.8249,-0.8314,-0.8219,-0.8219,-0.8219,-0.833,-0.8333,-0.8336,0,0,0,0,0,0,-0.848,-0.8477,-0.844,-0.8448,-0.8441,-0.8381,-0.8379,-0.8367,-0.8361,-0.8305,-0.8293,-0.8321,-0.8254,-0.8249,-0.827,-0.831,-0.8219,-0.8219,-0.8326,-0.8331,-0.8335,-0.8443,0,0,0,0,0,0,-0.8481,-0.8478,-0.8499,-0.8449,-0.8441,-0.8463,-0.8382,-0.8368,-0.8362,-0.8352,-0.8307,-0.8297,-0.8251,-0.8271,-0.8271,-0.8309,-0.8219,-0.8322,-0.8328,-0.8333,-0.8436,-0.8451,-0.8464,0,0,0,0,0,-0.8483,-0.8532,-0.8501,-0.8498,-0.8466,-0.8465,-0.846,-0.8406,-0.8365,-0.8386,-0.835,-0.8299,-0.8306,-0.8274,-0.8273,-0.8311,-0.832,-0.8326,-0.8333,-0.843,-0.8448,-0.8463,0,0,0,0,0,0,-0.8589,-0.8525,-0.8489,-0.8523,-0.8501,-0.8447,-0.8472,-0.8427,-0.8416,-0.8407,-0.834,-0.8331,-0.8361,-0.8337,-0.8304,-0.8364,-0.8305,-0.8312,-0.8379,-0.8395,-0.8409,-0.8415,-0.8219,0,0,0,0,0,-0.8617,-0.8621,-0.8564,-0.86,-0.859,-0.8533,-0.8531,-0.8491,-0.8464,-0.8454,-0.8419,-0.8396,-0.8393,-0.8393,-0.8387,-0.8431,-0.8421,-0.8457,-0.8471,-0.8483,-0.849,-0.8513,-0.8529,-0.8358,-0.8358,-0.8358,0,0,-0.8673,-0.8639,-0.8645,-0.862,-0.8598,-0.8604,-0.8526,-0.8536,-0.854,-0.8456,-0.8474,-0.8448,-0.8417,-0.8451,-0.8464,-0.8432,-0.8534,-0.8491,-0.8501,-0.8502,-0.8522,-0.8538,-0.8552,-0.8363,-0.8362,-0.8362,0,0,-0.878,-0.8754,-0.8781,-0.876,-0.8727,-0.8689,-0.8695,-0.8649,-0.8628,-0.8645,-0.8582,-0.8586,-0.8582,-0.8563,-0.8553,-0.8653,-0.8606,-0.8653,-0.8726,-0.875,-0.8763,-0.8775,-0.8812,-0.8826,-0.866,-0.866,-0.866,0,-0.8856,-0.8862,-0.8801,-0.8815,-0.8807,-0.873,-0.8758,-0.874,-0.8707,-0.8703,-0.8668,-0.8662,-0.8636,-0.8665,-0.8689,-0.8683,-0.8689,-0.8659,-0.8766,-0.8777,-0.8787,-0.8822,-0.8835,-0.8666,-0.8666,-0.8665,-0.8664,0,-0.8956,-0.8962,-0.8988,-0.8958,-0.8952,-0.8973,-0.8916,-0.8917,-0.8878,-0.8843,-0.8862,-0.8828,-0.8814,-0.8817,-0.8779,-0.8841,-0.8823,-0.8778,-0.8717,-0.881,-0.8842,-0.8854,-0.8675,-0.8673,-0.8671,-0.8669,0,0,-0.913,-0.9065,-0.9076,-0.9061,-0.9019,-0.9022,-0.904,-0.9026,-0.9029,-0.9008,-0.9022,-0.902,-0.8979,-0.8967,-0.8926,-0.8946,-0.9029,-0.8898,-0.8897,-0.8925,-0.9097,-0.9132,-0.9148,-0.8997,-0.8999,-0.9001,-0.91,0,-0.9229,-0.9255,-0.9201,-0.9241,-0.9246,-0.9173,-0.9188,-0.9164,-0.9133,-0.9132,-0.9097,-0.9098,-0.9042,-0.9035,-0.9051,-0.9016,-0.9063,-0.9007,-0.901,-0.9011,-0.9022,-0.9165,-0.9202,-0.9297,-0.9112,-0.9114,-0.9115,0,-0.9349,-0.9335,-0.9375,-0.933,-0.933,-0.9345,-0.9328,-0.9328,-0.93,-0.9275,-0.9263,-0.9214,-0.9229,-0.9169,-0.9189,-0.9153,-0.9151,-0.9133,-0.9136,-0.9135,-0.907,-0.917,-0.9326,-0.9341,-0.9133,-0.9132,-0.9131,0,-0.9474,-0.9464,-0.9486,-0.9476,-0.9424,-0.9437,-0.9416,-0.9384,-0.9379,-0.9364,-0.9361,-0.9348,-0.9342,-0.9334,-0.9283,-0.9244,-0.931,-0.9245,-0.9291,-0.9293,-0.931,-0.931,-0.947,-0.9306,-0.9306,-0.9305,-0.9305,0,-0.9591,-0.9619,-0.9542,-0.9556,-0.9585,-0.9523,-0.9554,-0.9525,-0.9498,-0.9506,-0.9441,-0.9451,-0.9382,-0.9384,-0.9344,-0.9368,-0.9365,-0.9347,-0.9336,-0.9354,-0.9356,-0.9353,-0.9345,-0.9309,-0.9308,-0.9307,-0.9307,0,-0.9736,-0.9685,-0.9705,-0.9654,-0.9642,-0.9666,-0.9623,-0.9634,-0.9598,-0.9609,-0.9608,-0.9552,-0.9551,-0.9499,-0.9487,-0.946,-0.9501,-0.9477,-0.9511,-0.9504,-0.9554,-0.9551,-0.9718,-0.9738,-0.956,-0.9562,-0.9563,0,-0.9815,-0.9835,-0.9786,-0.9787,-0.9769,-0.977,-0.9765,-0.9704,-0.9701,-0.967,-0.9686,-0.968,-0.9671,-0.9673,-0.9632,-0.9622,-0.9599,-0.9658,-0.9597,-0.9615,-0.9602,-0.9602,-0.9605,-0.9672,-0.9674,-0.9676,-0.9678,0,-0.9962,-0.9936,-0.9931,-0.9917,-0.9912,-0.9898,-0.988,-0.9885,-0.9818,-0.9818,-0.9816,-0.981,-0.9797,-0.9792,-0.9775,-0.9754,-0.9706,-0.9697,-0.9707,-0.9726,-0.9746,-0.9738,-0.9548,-0.9694,-0.9692,-0.9691,-0.969,-0.969,-1.0078,-1.0092,-1.006,-1.0056,-1.0036,-1.0021,-1.003,-0.9994,-0.9991,-0.9977,-0.994,-0.9945,-0.9916,-0.9888,-0.9871,-0.9874,-0.9844,-0.9859,-0.9863,-0.9868,-0.9878,-0.9744,-0.987,-0.987,-0.9869,-0.9869,-0.9869,0,-1.0223,-1.0198,-1.0195,-1.0172,-1.017,-1.0123,-1.01,-1.0102,-1.0106,-1.0083,-1.0076,-1.0074,-1.0069,-1.0027,-1.0017,-1.0027,-1.0005,-1.0027,-1.0026,-1.0023,-0.9905,-0.9897,-1.0045,-1.0045,-1.0045,-1.0045,-1.0045,-1.0045,-1.0298,-1.032,-1.029,-1.0302,-1.0277,-1.0281,-1.0272,-1.0258,-1.024,-1.024,-1.0235,-1.0208,-1.0177,-1.0165,-1.0158,-1.0146,-1.0146,-1.0176,-1.0157,-1.0048,-1.0031,-1.0015,-1.0008,-1.0176,-1.0176,-1.0275,-1.0276,-1.0276]},{"header":{"parameterUnit":"m.s-1","parameterCategory":1,"la1":30.2991,"la2":30.254,"lo1":-89.0895,"lo2":-89.0444,"dy":0.0017,"dx":0.0017,"nx":28,"ny":28,"refTime":"2023-09-16T21:00:00:Z","depth":0,"parameterNumber":3,"parameterNumberName":"V-component_of_WINDS"},"data":[0,0,0,0,0,0,0,0,0,0,0,0,0,0,0,0,0,0,0,0,0,0,0,0,0,0,0,0,0,0,0,0,0,0,0,0,0,0,0,0,0,0,0,0,0,0,0,0,0,0,0,0,0,0,0,0,0,0,-1.1133,-1.1133,0,-1.1139,-1.1139,-1.1139,-1.1168,-1.1169,-1.117,-1.117,-1.1176,-1.1176,-1.1175,0,0,0,0,0,0,0,0,0,0,0,0,0,-1.1148,-1.1147,-1.1133,-1.1133,-1.1133,-1.1139,-1.1139,-1.1139,-1.1168,-1.1169,-1.117,-1.1171,-1.1176,-1.1176,-1.1175,0,0,0,0,0,0,0,0,0,0,0,0,0,-1.1146,-1.1147,-1.1133,-1.1148,-1.115,-1.1139,-1.1139,-1.1139,-1.1168,-1.1169,-1.117,-1.1171,-1.1177,-1.1176,-1.1175,-1.1149,0,0,-1.1173,-1.1173,0,0,0,0,0,0,0,0,-1.1146,-1.1145,-1.1146,-1.1147,-1.1149,-1.1154,-1.1146,-1.1142,-1.1168,-1.1161,-1.117,-1.1172,-1.1168,-1.1168,-1.1167,-1.115,-1.115,-1.1173,-1.1172,-1.1172,-1.1172,0,0,0,0,0,0,0,-1.1146,-1.1145,-1.1135,-1.1146,-1.1148,-1.1155,-1.1156,-1.1146,-1.1159,-1.1162,-1.1164,-1.1164,-1.1169,-1.1167,-1.1167,-1.115,-1.1173,-1.1172,-1.1172,-1.1171,-1.1114,-1.1113,0,0,0,0,0,0,-1.1144,-1.1145,-1.1135,-1.1135,-1.115,-1.1154,-1.1155,-1.1151,-1.1159,-1.1161,-1.1163,-1.1166,-1.1168,-1.1168,-1.1167,-1.114,-1.1172,-1.1171,-1.1171,-1.1115,-1.1114,-1.1113,0,0,0,0,0,0,-1.1144,-1.1143,-1.1135,-1.1141,-1.114,-1.1153,-1.1148,-1.1151,-1.1149,-1.116,-1.1162,-1.1159,-1.1169,-1.1169,-1.1154,-1.114,-1.1171,-1.117,-1.1117,-1.1115,-1.1114,-1.1083,0,0,0,0,0,0,-1.1145,-1.1143,-1.1133,-1.114,-1.114,-1.1121,-1.1147,-1.115,-1.1148,-1.1151,-1.1157,-1.1159,-1.117,-1.1155,-1.1153,-1.114,-1.117,-1.1118,-1.1116,-1.1114,-1.1085,-1.1081,-1.1076,0,0,0,0,0,-1.1145,-1.1124,-1.1132,-1.1131,-1.1128,-1.112,-1.112,-1.1133,-1.1147,-1.1137,-1.1144,-1.1159,-1.1142,-1.1153,-1.1152,-1.1138,-1.1119,-1.1117,-1.1114,-1.1087,-1.1081,-1.1077,0,0,0,0,0,0,-1.1114,-1.1125,-1.1135,-1.1115,-1.1116,-1.1125,-1.1114,-1.1126,-1.1124,-1.1127,-1.1143,-1.1144,-1.1128,-1.1131,-1.1144,-1.1114,-1.1133,-1.113,-1.1113,-1.1108,-1.1103,-1.1104,-1.1169,0,0,0,0,0,-1.1105,-1.1097,-1.1107,-1.1089,-1.1089,-1.1101,-1.1098,-1.1108,-1.1111,-1.1111,-1.1117,-1.1119,-1.1114,-1.1111,-1.1107,-1.1085,-1.1088,-1.1075,-1.107,-1.1067,-1.1065,-1.1056,-1.105,-1.1105,-1.1105,-1.1105,0,0,-1.1086,-1.1091,-1.1085,-1.1083,-1.1085,-1.1078,-1.1102,-1.1092,-1.1088,-1.111,-1.1098,-1.1102,-1.1105,-1.1087,-1.108,-1.109,-1.105,-1.1064,-1.1061,-1.1061,-1.1053,-1.1047,-1.1043,-1.1104,-1.1104,-1.1104,0,0,-1.1048,-1.105,-1.1037,-1.1039,-1.1042,-1.105,-1.1047,-1.1054,-1.1058,-1.1045,-1.1063,-1.1057,-1.1047,-1.105,-1.1049,-1.1013,-1.1027,-1.1011,-1.0989,-1.098,-1.0975,-1.0972,-1.0961,-1.0956,-1.1009,-1.1009,-1.1009,0,-1.1024,-1.1014,-1.1028,-1.1018,-1.1017,-1.1037,-1.1024,-1.1025,-1.1027,-1.1026,-1.1036,-1.1027,-1.103,-1.1014,-1.1006,-1.1004,-1.1002,-1.1012,-1.0975,-1.0971,-1.0968,-1.0958,-1.0953,-1.1007,-1.1007,-1.1007,-1.1007,0,-1.0986,-1.0978,-1.0966,-1.0969,-1.0966,-1.0954,-1.0967,-1.0963,-1.0973,-1.098,-1.0968,-1.0972,-1.0971,-1.0967,-1.0976,-1.0953,-1.0959,-1.0972,-1.0991,-1.0961,-1.0952,-1.0948,-1.1004,-1.1005,-1.1005,-1.1006,0,0,-1.093,-1.094,-1.0935,-1.0937,-1.0943,-1.0938,-1.0927,-1.0925,-1.0923,-1.0923,-1.0916,-1.0908,-1.092,-1.092,-1.0929,-1.0921,-1.0894,-1.0935,-1.0935,-1.0929,-1.0871,-1.0863,-1.0858,-1.0903,-1.0902,-1.0901,-1.0872,0,-1.0895,-1.0879,-1.0891,-1.0872,-1.0867,-1.0886,-1.0877,-1.0879,-1.0886,-1.0882,-1.0889,-1.0884,-1.0899,-1.0899,-1.0892,-1.0899,-1.0883,-1.0901,-1.0898,-1.0897,-1.0898,-1.0853,-1.0845,-1.0816,-1.0868,-1.0867,-1.0867,0,-1.0854,-1.0853,-1.0834,-1.0842,-1.084,-1.0832,-1.0833,-1.0828,-1.0832,-1.0837,-1.0837,-1.0849,-1.084,-1.0858,-1.0846,-1.0858,-1.0857,-1.0861,-1.086,-1.0862,-1.0882,-1.0856,-1.0807,-1.0804,-1.0861,-1.0861,-1.0862,0,-1.0817,-1.0812,-1.08,-1.0801,-1.0809,-1.0803,-1.0807,-1.0811,-1.081,-1.081,-1.081,-1.0808,-1.0808,-1.0807,-1.0819,-1.083,-1.0806,-1.0825,-1.0812,-1.0812,-1.0808,-1.0808,-1.076,-1.0803,-1.0803,-1.0803,-1.0803,0,-1.0779,-1.0767,-1.0784,-1.0777,-1.0765,-1.0779,-1.0766,-1.0772,-1.0776,-1.077,-1.0786,-1.0781,-1.0796,-1.0792,-1.0801,-1.0791,-1.079,-1.0795,-1.0798,-1.0795,-1.0795,-1.0796,-1.0799,-1.0802,-1.0802,-1.0803,-1.0803,0,-1.0737,-1.0748,-1.0737,-1.0746,-1.0748,-1.0739,-1.0747,-1.0741,-1.0748,-1.0742,-1.0741,-1.0753,-1.0749,-1.0761,-1.0759,-1.0765,-1.0751,-1.0756,-1.075,-1.0753,-1.074,-1.0742,-1.0693,-1.0688,-1.0732,-1.0732,-1.0731,0,-1.0714,-1.0705,-1.0714,-1.0711,-1.0714,-1.071,-1.0709,-1.0722,-1.0721,-1.0725,-1.0719,-1.0717,-1.0717,-1.0711,-1.0719,-1.0718,-1.0725,-1.0708,-1.0725,-1.0722,-1.0727,-1.0728,-1.0728,-1.0705,-1.0704,-1.0704,-1.0703,0,-1.0671,-1.0677,-1.0675,-1.0675,-1.0674,-1.0674,-1.0676,-1.0673,-1.0688,-1.0685,-1.0683,-1.0682,-1.0681,-1.0679,-1.068,-1.0684,-1.0697,-1.0698,-1.0695,-1.0693,-1.0691,-1.0694,-1.0743,-1.0699,-1.07,-1.07,-1.07,-1.07,-1.0639,-1.0633,-1.0638,-1.0636,-1.0639,-1.064,-1.0636,-1.0643,-1.0641,-1.0641,-1.0649,-1.0645,-1.065,-1.0653,-1.0655,-1.0652,-1.066,-1.0656,-1.0655,-1.0655,-1.0653,-1.0689,-1.0652,-1.0652,-1.0653,-1.0653,-1.0653,0,-1.0599,-1.0603,-1.0601,-1.0603,-1.0602,-1.0613,-1.0616,-1.0614,-1.061,-1.0614,-1.0613,-1.061,-1.0609,-1.0617,-1.0617,-1.0614,-1.062,-1.0614,-1.0615,-1.0616,-1.0645,-1.0648,-1.0609,-1.0609,-1.0609,-1.0609,-1.0609,-1.0609,-1.0578,-1.0569,-1.0575,-1.0568,-1.0573,-1.057,-1.057,-1.0572,-1.0575,-1.0572,-1.0571,-1.0576,-1.0582,-1.0583,-1.0582,-1.0585,-1.0585,-1.0577,-1.0582,-1.0609,-1.0614,-1.0618,-1.0621,-1.0577,-1.0577,-1.0553,-1.0553,-1.0553]}]]